Weather History for 94926 - July, 2013

Change the Weather History Date:

Wednesday, July 24, 2013

  Actual Average Record
Temperature  
Mean Temperature 44 °F -  
Max Temperature 57 °F 54 °F - ()
Min Temperature 30 °F 33 °F - ()
Degree Days  
Heating Degree Days 20    
Moisture  
Dew Point 33 °F    
Average Humidity 70    
Maximum Humidity 100    
Minimum Humidity 27    
Precipitation  
Precipitation 0.00 in 0.06 in - ()
Sea Level Pressure  
Sea Level Pressure 30.34 in    
Wind  
Wind Speed 5 mph ()    
Max Wind Speed 12 mph    
Max Gust Speed -    
Visibility 6.1 miles    
Events      
T = Trace of Precipitation, MM = Missing Value Source: Averaged Metar Reports

Daily Weather History Graph

Daily Weather History Graph

Search for Another Location

Airport or City:

Trip Planner

Search our weather history database for the weather conditions in past years. The results will help you decide how hot, cold, wet, or windy it might be!

Date:

Astronomy

Jul. 24, 2013 Rise Set
Actual Time 7:04 AM AEST 5:15 PM AEST
Civil Twilight 6:37 AM AEST 5:42 PM AEST
Nautical Twilight 6:06 AM AEST 6:13 PM AEST
Astronomical Twilight 5:36 AM AEST 6:43 PM AEST
Moon 7:09 PM AEST 7:39 AM AEST
Length of Visible Light 11h 05m
Length of Day
10h 10m
Full, 97% of the Moon is Illuminated
Jul 24
Full
Jul 30
Last Quarter
Aug 7
New
Aug 14
First Quarter
Aug 21
Full

Hourly Weather History & Observations

Time (AEST) Temp. Windchill Dew Point Humidity Pressure Visibility Wind Dir Wind Speed Gust Speed Precip Events Conditions
12:00 AM 38 °F - 34 °F 79% 30.31 in - East 4.6 mph - -  
12:00 AM 37.4 °F 33.8 °F 33.8 °F 87% 30.24 in 6.2 mi East 4.6 mph - N/A   Scattered Clouds
12:30 AM 35.6 °F 32.8 °F 32.0 °F 87% 30.24 in 6.2 mi North 3.5 mph - N/A   Scattered Clouds
1:00 AM 35 °F - 32 °F 86% 30.31 in - NNW 1.2 mph - -  
1:00 AM 35.6 °F - 32.0 °F 87% 30.27 in 6.2 mi NNW 1.2 mph - N/A   Scattered Clouds
1:30 AM 39.2 °F 37.0 °F 37.4 °F 93% 30.27 in 6.2 mi SW 3.5 mph - N/A   Scattered Clouds
2:00 AM 39.2 °F 33.6 °F 35.6 °F 87% 30.27 in 6.2 mi SW 8.1 mph - N/A   Unknown
2:30 AM 37.4 °F - 35.6 °F 93% 30.27 in 6.2 mi SSE 2.3 mph - N/A   Unknown
3:00 AM 42 °F - 35 °F 68% 30.34 in - WNW 5.8 mph - -  
3:00 AM 42.8 °F 39.3 °F 35.6 °F 76% 30.27 in 6.2 mi WNW 5.8 mph - N/A   Unknown
3:30 AM 41.0 °F 35.8 °F 33.8 °F 76% 30.27 in 6.2 mi SSE 8.1 mph - N/A   Unknown
4:00 AM 42 °F - 34 °F 64% 30.33 in - South 11.5 mph - -  
4:00 AM 41.0 °F 34.3 °F 33.8 °F 76% 30.27 in 6.2 mi South 11.5 mph - N/A   Unknown
4:30 AM 37.4 °F 32.8 °F 30.2 °F 75% 30.27 in 6.2 mi SSW 5.8 mph - N/A   Partly Cloudy
5:00 AM 37.4 °F 32.1 °F 32.0 °F 81% 30.27 in 6.2 mi South 6.9 mph - N/A   Partly Cloudy
5:30 AM 37.4 °F 32.8 °F 32.0 °F 81% 30.30 in 6.2 mi South 5.8 mph - N/A   Partly Cloudy
6:00 AM 34 °F - 30 °F 81% 30.37 in - Calm Calm - -  
6:00 AM 33.8 °F - 30.2 °F 87% 30.30 in 6.2 mi Calm Calm - N/A   Partly Cloudy
6:30 AM 37.4 °F 33.8 °F 30.2 °F 75% 30.33 in 6.2 mi South 4.6 mph - N/A   Partly Cloudy
7:00 AM 38 °F - 32 °F 71% 30.39 in - South 8.1 mph - -  
7:00 AM 37.4 °F 31.4 °F 32.0 °F 81% 30.33 in - South 8.1 mph - N/A   Clear
7:30 AM 37.4 °F 34.9 °F 30.2 °F 75% 30.36 in - SW 3.5 mph - N/A   Clear
8:00 AM 37.4 °F - 30.2 °F 75% 30.36 in - NNW 2.3 mph - N/A   Clear
8:30 AM 42.8 °F 40.1 °F 33.8 °F 70% 30.36 in - ESE 4.6 mph - N/A   Clear
9:00 AM 45 °F - 35 °F 56% 30.42 in - WNW 3.5 mph - -  
9:00 AM 44.6 °F 43.1 °F 33.8 °F 66% 30.36 in - WNW 3.5 mph - N/A   Clear
9:30 AM 46.4 °F 43.5 °F 33.8 °F 62% 30.36 in - ESE 5.8 mph - N/A   Clear
10:00 AM 47 °F - 33 °F 47% 30.43 in - East 8.1 mph - -  
10:00 AM 48.2 °F - 33.8 °F 58% 30.39 in - East 8.1 mph - N/A   Clear
10:30 AM 50.0 °F - 33.8 °F 54% 30.36 in - East 5.8 mph - N/A   Clear
11:00 AM 51.8 °F - 35.6 °F 54% 30.36 in - NE 4.6 mph - N/A   Clear
11:30 AM 53.6 °F - 33.8 °F 47% 30.36 in - NW 4.6 mph - N/A   Clear
12:00 PM 54 °F - 34 °F 35% 30.40 in - SSW 5.8 mph - -  
12:00 PM 53.6 °F - 33.8 °F 47% 30.36 in - SSW 5.8 mph - N/A   Clear
12:30 PM 55.4 °F - 33.8 °F 44% 30.33 in - WNW 10.4 mph - N/A   Clear
1:00 PM 55 °F - 35 °F 34% 30.37 in - West 9.2 mph - -  
1:00 PM 55.4 °F - 35.6 °F 47% 30.33 in - West 9.2 mph - N/A   Clear
1:30 PM 55.4 °F - 33.8 °F 44% 30.33 in 6.2 mi WNW 10.4 mph - N/A   Partly Cloudy
2:00 PM 55.4 °F - 33.8 °F 44% 30.30 in - WNW 10.4 mph - N/A   Clear
2:30 PM 55.4 °F - 32.0 °F 41% 30.30 in - West 9.2 mph - N/A   Clear
3:00 PM 57 °F - 33 °F 27% 30.36 in - WNW 6.9 mph - -  
3:00 PM 57.2 °F - 32.0 °F 38% 30.30 in - WNW 6.9 mph - N/A   Clear
3:30 PM 57.2 °F - 32.0 °F 38% 30.30 in - WNW 6.9 mph - N/A   Clear
4:00 PM 56 °F - 33 °F 30% 30.35 in - West 6.9 mph - -  
4:00 PM 55.4 °F - 33.8 °F 44% 30.30 in - West 6.9 mph - N/A   Clear
4:30 PM 53.6 °F - 35.6 °F 51% 30.30 in - NW 9.2 mph - N/A   Clear
5:00 PM 50.0 °F - 37.4 °F 62% 30.33 in - NW 9.2 mph - N/A   Clear
5:30 PM 46.4 °F 42.9 °F 37.4 °F 71% 30.33 in - NNW 6.9 mph - N/A   Clear
6:00 PM 43 °F - 36 °F 67% 30.38 in - North 4.6 mph - -  
6:00 PM 42.8 °F 40.1 °F 35.6 °F 76% 30.33 in - North 4.6 mph - N/A   Clear
6:30 PM 39.2 °F 35.9 °F 33.8 °F 81% 30.33 in - NNE 4.6 mph - N/A   Clear
7:00 PM 37 °F - 34 °F 84% 30.40 in - ESE 5.8 mph - -  
7:00 PM 37.4 °F 32.8 °F 33.8 °F 87% 30.33 in - ESE 5.8 mph - N/A   Clear
7:30 PM 37.4 °F 33.8 °F 33.8 °F 87% 30.36 in - ENE 4.6 mph - N/A   Clear
8:00 PM 35.6 °F 31.7 °F 32.0 °F 87% 30.36 in - NNW 4.6 mph - N/A   Clear
8:30 PM 33.8 °F - 32.0 °F 93% 30.36 in - Calm Calm - N/A   Clear
9:00 PM 34 °F - 32 °F 91% 30.43 in - Calm Calm - -  
9:00 PM 33.8 °F - 32.0 °F 93% 30.36 in 6.2 mi Calm Calm - N/A   Unknown
9:30 PM 33.8 °F - 32.0 °F 93% 30.36 in 6.2 mi SE 2.3 mph - N/A   Unknown
10:00 PM 32 °F - 29 °F 86% 30.43 in - Calm Calm - -  
10:00 PM 32.0 °F - 30.2 °F 93% 30.39 in 6.2 mi Calm Calm - N/A   Unknown
10:30 PM 32.0 °F - 30.2 °F 93% 30.39 in 6.2 mi Calm Calm - N/A   Unknown
11:00 PM 32.0 °F - 30.2 °F 93% 30.36 in 6.2 mi Calm Calm - N/A   Unknown
11:30 PM 30.2 °F - 30.2 °F 100% 30.36 in 4.3 mi Calm Calm - N/A   Unknown